Regional Weather Roundup
Issued by NWS

Home | Current Version | Previous Version | Graphics & Text | Print | Product List | Glossary On
Versions: 1 2 3 4 5 6 7 8 9 10 11 12 13 14 15 16 17 18 19 20 21 22 23 24 25 26 27 28 29 30 31 32 33 34 35 36 37 38 39 40 41 42 43 44 45 46 47 48 49 50
743
ASUS45 KTFX 220110
RWRMT
MONTANA REGIONAL WEATHER ROUNDUP
NATIONAL WEATHER SERVICE GREAT FALLS MT
700 PM MDT SAT OCT 21 2017

NOTE: "FAIR" INDICATES FEW OR NO CLOUDS BELOW 12000 FEET WITH NO
SIGNIFICANT WEATHER AND/OR OBSTRUCTIONS TO VISIBILITY.

MTZ001>007-043-220200-
WEST OF THE DIVIDE

CITY           SKY/WX    TMP DP  RH WIND       PRES   REMARKS
KALISPELL      CLOUDY    44  31  60 S8        29.91F
MISSOULA       CLOUDY    45  29  53 E6        29.97S
BUTTE          CLOUDY    38  26  62 NW5       29.99F
MULLAN PASS    SNOW      29  26  89 S8        29.88S VSB 1/4 WCI  21
ANACONDA         N/A     39  25  56 S15G28    29.97F WCI  31
DEER LODGE       N/A     39  27  60 S8        29.96F
EUREKA           N/A     45  28  53 MISG      29.89F
HAMILTON         N/A     43  28  56 S14G23    29.99F
LIBBY            N/A     45  32  61 SW6       29.90R
$$

MTZ008-052>055-220200-
SOUTHWEST MONTANA

CITY           SKY/WX    TMP DP  RH WIND       PRES   REMARKS
BOZEMAN        MOCLDY    44  21  40 SW10      30.00R
DILLON         CLOUDY    40  21  46 S8        30.03S
W YELLOWSTONE  CLOUDY    30  25  80 SW17      30.14R HAZE    WCI  18
ENNIS          CLOUDY    37  21  52 S24G35    30.10S WCI  26
THREE FORKS      N/A     45  19  35 S20       29.98R
$$

MTZ009-010-012-014-046-048-049-054-220200-
EAST SLOPES AND CENTRAL MONTANA

CITY           SKY/WX    TMP DP  RH WIND       PRES   REMARKS
CUT BANK       PTCLDY    38  22  52 SW10      29.82S WCI  31
GREAT FALLS    CLEAR     41  20  43 SW13      29.87S
MALMSTROM AFB  CLEAR     43  22  42 SW16      29.87F
HELENA         PTCLDY    46  25  43 S12       29.94F
BOWMANS CRNR     N/A     38  22  54 S14       29.86F WCI  29
CHOTEAU          N/A     43  21  42 SW17G23   29.86R
FAIRFIELD        N/A     41  20  43 SW13      29.85S
POWER            N/A     38  21  49 SW12      29.85S WCI  31
RAYNESFORD       N/A     43  19  38 W12       29.87S
ULM              N/A     43  21  42 SW15      29.88F
$$

MTZ011-013-016-021-045-047-050-051-220200-
NORTH CENTRAL MONTANA

CITY           SKY/WX    TMP DP  RH WIND       PRES   REMARKS
HAVRE          CLEAR     38  24  57 W8        29.81F
LEWISTOWN      CLEAR     37  18  46 W10       29.88F WCI  30
N BAR RANCH      N/A     37  14  38 W6        29.91S
CHINOOK          N/A     43  23  45 CALM      29.81F
DENTON           N/A     40  18  42 MISG      29.84F
GEYSER           N/A     39  17  40 W8        29.86F
GRASS RANGE      N/A     41  16  35 W15       29.85S
JUDITH GAP       N/A     38  14  38 W6        29.90F
WINIFRED       MOCLDY    43  18  36 W9        29.86F
$$

MTZ017>020-022>027-061-062-220200-
NORTHEAST MONTANA

CITY           SKY/WX    TMP DP  RH WIND       PRES   REMARKS
GLASGOW        CLEAR     46  25  43 W9        29.80R
JORDAN           N/A     40  22  48 NW6       29.85R
SIDNEY         MOCLDY    49  27  42 W9        29.80R
WOLF POINT     CLEAR     50  25  37 W10       29.80R
MALTA          CLEAR     41  25  52 W7        29.82R
PLENTYWOOD       N/A     43  28  56 W9        29.74R
POPLAR           N/A     48  25  40 W8        29.80R
$$

MTZ028>42-056>058-220200-
SOUTHCENTRAL AND SOUTHEAST MONTANA

CITY           SKY/WX    TMP DP  RH WIND       PRES   REMARKS
BAKER          CLEAR     44  24  45 W12       29.87R
BILLINGS       PTCLDY    49  17  28 W16G23    29.92R
LIVINGSTON     CLOUDY    44  18  35 SW41G58   29.91F
MILES CITY     CLEAR     47  24  40 NW3       29.88R
BIG TIMBER     CLEAR     43  18  36 W18G26    29.95R
FORSYTH          N/A     52  18  25 SW3       29.90R
HARLOWTON        N/A     42  15  33 W16       29.89S
LAUREL           N/A     41  16  36 SW9       29.93S
$$

REGIONAL REPORTS...DAKOTAS

CITY           SKY/WX    TMP DP  RH WIND       PRES   REMARKS
WILLISTON      CLEAR     38  29  70 W7        29.77R
MINOT          LGT RAIN  47  39  74 W22G30    29.69R
DICKINSON      CLEAR     47  24  40 W16       29.79R
BEACH            N/A     45  21  39 W14       29.86R
CROSBY         CLOUDY    46  34  61 W18       29.72R
TIOGA          MOCLDY    45  37  76 W13G20    29.74R
WATFORD CITY     N/A     45  28  53 NW8       29.77R
BISMARCK       CLOUDY    51  36  56 W15       29.78R
GRAND FORKS    CLOUDY    54  43  66 W16G25    29.61R
FARGO          CLOUDY    53  44  71 SW15      29.69R
BUFFALO SD       N/A     43  22  43 W10       29.83R
RAPID CITY     CLEAR     37  18  46 NW10      29.95R WCI  30
$$

REGIONAL REPORTS...WYOMING/IDAHO/WASHINGTON

CITY           SKY/WX    TMP DP  RH WIND       PRES   REMARKS
GILLETTE       CLEAR     33  15  47 SW3       29.96R
SHERIDAN       CLEAR     44  14  29 W10       29.96R
BUFFALO WY     CLEAR     39   8  27 W5        29.98R
CODY           PTCLDY    41  17  38 W23G32    30.02R
YELLOWSTONE LA   N/A     25  21  85 MISG      30.16R
IDAHO FALLS    CLOUDY    44  24  45 S9        30.19S
SALMON         CLOUDY    43  29  57 CALM      30.09R
BOISE          LGT RAIN  44  42  93 E14       30.18S
SPOKANE        LGT RAIN  41  40  96 SE13      29.88F
$$

REGIONAL REPORTS...ALBERTA

CITY           SKY/WX    TMP DP  RH WIND       PRES   REMARKS
EDMONTON       CLEAR     36  27  69 E7        29.62F WCI  30
CALGARY        PTCLDY    41  16  36 CALM      29.66F
LETHBRIDGE     PTCLDY    39  23  52 SW10      29.77R
MEDICINE HAT   PTCLDY    45  27  49 SW14      29.75R
$$

REGIONAL REPORTS...SASKATCHEWAN

CITY           SKY/WX    TMP DP  RH WIND       PRES   REMARKS
SWIFT CURRENT  CLEAR     37  28  70 W9        29.72S WCI  31
REGINA         PTCLDY    41  36  81 W9        29.67R
SASKATOON      CLEAR     39  34  81 W8        29.67R
$$




USA.gov is the U.S. government's official web portal to all federal, state and local government web resources and services.